{"data":{"norad_id":67358,"intl_designator":"2026-003AA","name":"STARLINK-36466","alt_names":[],"object_type":"PAYLOAD","status":"ACTIVE","operator":null,"country":"US","launch_date":"2026-01-09","launch_site_code":"AFETR","launch_vehicle":null,"mission":null,"orbit_class":"UNKNOWN","rcs_meters":null,"size_class":null,"mass_kg":null,"dimensions":null,"purposes":["comms"],"wikipedia_slug":null,"has_3d_model":false,"image_url":null,"decayed_at":null,"tle_current":{"epoch":"2026-09-18T07:05:39.077088Z","epoch_age_seconds":265818,"freshness":"STALE","line1":"1 67358U 26003AA  26261.29559117  .00010159  00000+0  37816-3 0  9999","line2":"2 67358  42.9987 219.0523 0002098 254.1480 105.9140 15.27582618 38281","mean_motion":15.27582618,"eccentricity":0.0002098,"inclination_deg":42.9987,"raan_deg":219.0523,"arg_perigee_deg":254.148,"mean_anomaly_deg":105.914,"bstar":0.00037816,"rev_number":3828,"period_min":94.266587157514,"perigee_km":481.60178161875,"apogee_km":484.48073201531,"semimajor_km":6861.178256817,"source":"CELESTRAK","updated_at":"2026-09-20T09:00:43.516977Z"}}}